Station: Macquarie Island  

  Atmospheric Gas Attenuation - ITU Rec 676-11   ----------------- dB/100km -----------------
Date Time Temp RH % AH g/m3 Dew Point Wind Direction Speed kph Gust kph Barometer mB Rainfall Since 9am 24GHz 47GHz 76GHz 122GHz 134GHz 241GHz
01/09 06:10 1.4 68 3.63 -3.8 9 11 998.2 1.6 9.4 20.7 24.7 64.3 44.6 148.2
01/09 06:00 1.7 67 3.65 -3.8 13 17 998.4 1.6 9.4 20.7 24.7 64.3 44.7 148.6
01/09 05:50 1.8 66 3.62 -3.9 13 19 998.6 1.6 9.3 20.6 24.6 63.9 44.2 147.1
01/09 05:40 1.9 66 3.65 -3.8 17 22 998.7 1.6 9.4 20.6 24.7 64.1 44.6 148.2
01/09 05:30 1.9 65 3.59 -4 17 22 998.7 1.6 9.3 20.5 24.4 63.5 43.8 145.6
01/09 05:20 1.8 63 3.46 -4.5 19 24 998.7 1.6 9.0 20.4 24.0 62.3 42.3 140.1
01/09 05:10 1.8 63 3.46 -4.5 19 26 998.8 1.6 9.0 20.4 24.0 62.3 42.3 140.1
01/09 05:00 1.8 62 3.4 -4.7 19 26 998.8 1.6 8.9 20.3 23.8 61.7 41.5 137.5
01/09 04:50 1.7 62 3.38 -4.8 19 28 999 1.6 8.8 20.3 23.7 61.6 41.3 136.8
01/09 04:40 1.8 59 3.24 -5.3 22 30 999.2 1.6 8.5 20.1 23.2 60.1 39.6 130.6
01/09 04:30 1.8 60 3.29 -5.1 24 32 999.2 1.6 8.6 20.1 23.4 60.6 40.2 132.8
01/09 04:20 1.8 63 3.46 -4.5 26 35 999.2 1.6 9.0 20.4 24.0 62.3 42.3 140.2
01/09 04:10 1.8 65 3.57 -4.1 30 35 999.2 1.6 9.2 20.6 24.4 63.4 43.6 145.0
01/09 04:00 1.8 65 3.57 -4.1 28 35 999.3 1.6 9.2 20.6 24.4 63.4 43.7 145.0
01/09 03:50 1.9 66 3.65 -3.8 28 37 999.4 1.6 9.4 20.7 24.7 64.2 44.6 148.3
01/09 03:40 1.9 64 3.54 -4.2 30 39 999.5 1.6 9.2 20.5 24.3 63.1 43.2 143.5
01/09 03:30 1.9 60 3.32 -5 32 39 999.5 1.6 8.7 20.2 23.5 60.9 40.5 134.0
01/09 03:20 1.9 62 3.43 -4.6 32 39 999.7 1.6 8.9 20.3 23.9 62.0 41.9 138.8
01/09 03:10 1.9 61 3.37 -4.8 32 41 999.9 1.6 8.8 20.3 23.7 61.4 41.1 136.2
01/09 03:00 1.9 63 3.48 -4.4 32 39 1000 1.6 9.0 20.4 24.1 62.5 42.5 141.0
01/09 02:50 1.9 61 3.37 -4.8 33 41 1000.1 1.6 8.8 20.3 23.7 61.4 41.2 136.2
01/09 02:40 2 62 3.45 -4.5 32 41 1000.4 1.6 9.0 20.4 23.9 62.2 42.1 139.5
01/09 02:30 1.9 64 3.54 -4.2 30 37 1000.5 1.6 9.2 20.5 24.3 63.2 43.3 143.7
01/09 02:20 2 61 3.39 -4.7 32 41 1000.6 1.6 8.8 20.3 23.7 61.6 41.4 137.0
01/09 02:10 1.9 59 3.26 -5.2 37 44 1000.5 1.6 8.6 20.1 23.3 60.4 39.8 131.5
01/09 02:00 1.9 63 3.48 -4.4 37 44 1000.4 1.6 9.0 20.4 24.1 62.5 42.5 141.0
01/09 01:50 1.9 63 3.48 -4.4 35 43 1000.4 1.6 9.0 20.4 24.1 62.5 42.5 141.0
01/09 01:40 1.9 63 3.48 -4.4 35 44 1000.6 1.6 9.0 20.4 24.1 62.6 42.5 141.0
01/09 01:30 1.8 66 3.62 -3.9 33 43 1000.7 1.6 9.3 20.7 24.6 64.1 44.3 147.4
01/09 01:20 1.9 67 3.7 -3.6 32 44 1000.7 1.6 9.5 20.8 24.9 64.8 45.3 150.7
01/09 01:10 1.8 63 3.46 -4.5 35 50 1000.9 1.6 9.0 20.5 24.1 62.5 42.4 140.4
01/09 01:00 1.8 63 3.46 -4.5 32 46 1001 1.6 9.0 20.5 24.1 62.5 42.4 140.4
01/09 00:50 1.8 66 3.62 -3.9 37 48 1001.2 1.6 9.3 20.7 24.7 64.1 44.4 147.4
01/09 00:40 1.8 64 3.51 -4.3 35 46 1001.1 1.6 9.1 20.5 24.3 63.0 43.0 142.6
01/09 00:30 1.7 61 3.32 -5 35 46 1001.2 1.6 8.7 20.3 23.6 61.2 40.7 134.5
01/09 00:20 1.7 64 3.49 -4.4 33 50 1001.3 1.6 9.1 20.5 24.2 62.9 42.8 141.9
01/09 00:10 1.8 62 3.4 -4.7 35 50 1001.4 1.6 8.9 20.4 23.9 61.9 41.6 137.8
01/09 00:00 1.7 62 3.38 -4.8 39 54 1001.4 1.6 8.8 20.4 23.8 61.8 41.4 137.1
31/08 23:50 1.7 59 3.22 -5.4 37 54 1001.4 1.6 8.5 20.1 23.2 60.2 39.5 130.2
31/08 23:40 1.6 64 3.46 -4.5 35 46 1001.4 1.6 9.0 20.5 24.1 62.7 42.5 140.8
31/08 23:30 1.6 63 3.41 -4.7 41 52 1001.6 1.6 8.9 20.4 24.0 62.2 41.9 138.7
31/08 23:20 1.6 64 3.46 -4.5 43 50 1001.4 1.6 9.0 20.5 24.1 62.7 42.5 140.8
31/08 23:10 1.6 63 3.41 -4.7 41 54 1001.6 1.6 8.9 20.4 24.0 62.2 41.9 138.7
31/08 23:00 1.6 64 3.46 -4.5 37 50 1001.8 1.6 9.0 20.5 24.1 62.7 42.5 140.9
31/08 22:50 1.5 60 3.23 -5.4 39 50 1002 1.6 8.5 20.2 23.3 60.5 39.7 131.0
31/08 22:40 1.6 65 3.52 -4.3 41 54 1002 1.6 9.1 20.6 24.4 63.3 43.3 143.5
31/08 22:30 1.5 57 3.06 -6.1 41 56 1002 1.6 8.2 20.0 22.7 58.8 37.6 123.7
31/08 22:20 1.5 62 3.33 -5 43 56 1001.8 1.6 8.7 20.4 23.7 61.5 40.9 135.4
31/08 22:10 1.4 61 3.26 -5.3 46 57 1001.8 1.6 8.6 20.3 23.5 60.9 40.1 132.5
31/08 22:00 1.5 61 3.28 -5.2 44 59 1001.8 1.6 8.6 20.3 23.5 61.0 40.3 133.2
31/08 21:50 1.5 63 3.39 -4.8 46 57 1001.7 1.6 8.9 20.4 23.9 62.1 41.7 138.0
31/08 21:40 1.4 65 3.47 -4.4 48 57 1001.7 1.6 9.0 20.6 24.2 62.9 42.7 141.6
31/08 21:30 1.5 66 3.55 -4.1 46 56 1001.7 1.6 9.2 20.7 24.5 63.7 43.7 145.0
31/08 21:20 1.4 67 3.58 -4 48 59 1001.6 1.6 9.3 20.8 24.7 64.1 44.1 146.5
31/08 21:10 1.6 57 3.09 -6 46 59 1001.4 1.6 8.2 20.0 22.8 59.0 37.9 124.8
31/08 21:00 1.5 55 2.96 -6.5 50 61 1001.5 1.6 7.9 19.8 22.3 57.8 36.4 119.4
31/08 20:50 1.5 59 3.17 -5.6 50 65 1001.6 1.6 8.4 20.1 23.1 59.9 39.0 128.4
31/08 20:40 1.4 62 3.31 -5.1 48 57 1001.5 1.6 8.7 20.3 23.6 61.3 40.7 134.6
31/08 20:30 1.3 63 3.34 -5 50 61 1001.6 1.6 8.8 20.4 23.8 61.7 41.2 136.1
31/08 20:20 1.4 66 3.52 -4.2 46 57 1001.6 1.6 9.1 20.7 24.4 63.4 43.3 143.8
31/08 20:10 1.1 69 3.61 -3.9 41 56 1001.7 1.6 9.3 20.9 24.9 64.6 44.6 148.4
31/08 20:00 0.6 75 3.79 -3.3 32 56 1001.8 1.6 9.7 21.3 25.7 66.9 47.2 157.4
31/08 19:50 0.7 74 3.77 -3.4 37 67 1001.9 1.6 9.7 21.2 25.6 66.6 46.9 156.3
31/08 19:40 1.5 68 3.66 -3.7 44 63 1001.9 1.6 9.4 20.9 24.9 64.8 45.1 149.8
31/08 19:30 1.5 65 3.5 -4.3 46 57 1001.9 1.6 9.1 20.6 24.3 63.2 43.1 142.8
31/08 19:20 1.4 67 3.58 -4 50 67 1001.9 1.6 9.3 20.8 24.7 64.1 44.1 146.5
31/08 19:10 1.5 71 3.82 -3.2 46 63 1002 1.6 9.8 21.1 25.5 66.4 47.1 157.0
31/08 19:00 1.1 72 3.77 -3.4 33 70 1002.1 1.6 9.7 21.1 25.5 66.3 46.7 155.5
31/08 18:50 0.8 78 4 -2.6 26 65 1002.3 1.6 10.2 21.6 26.5 68.9 49.8 166.5
31/08 18:40 1.2 70 3.69 -3.7 43 61 1002 1.6 9.5 21.0 25.1 65.4 45.6 151.8
31/08 18:30 0.9 74 3.82 -3.2 35 63 1002 1.6 9.8 21.3 25.7 67.0 47.4 158.1
31/08 18:20 0.5 77 3.87 -3.1 32 46 1002.2 1.6 9.9 21.4 26.1 67.8 48.3 161.2
31/08 18:10 0 76 3.69 -3.7 35 57 1002.2 1.6 9.5 21.3 25.5 66.4 46.3 154.1
31/08 18:00 0.7 71 3.61 -3.9 33 61 1002.3 1.6 9.4 21.0 25.0 65.0 44.9 149.2
31/08 17:50 1.1 70 3.66 -3.7 44 63 1002 1.6 9.5 21.0 25.1 65.1 45.3 150.6
31/08 17:40 1.2 71 3.74 -3.5 41 70 1001.9 1.6 9.6 21.1 25.3 65.9 46.2 154.0
31/08 17:30 1.1 58 3.03 -6.2 32 59 1001.7 1.6 8.1 20.0 22.7 58.8 37.4 123.0
31/08 17:20 0.9 61 3.15 -5.8 44 72 1001.8 1.6 8.4 20.2 23.2 60.1 39.0 128.5
31/08 17:10 0.6 63 3.19 -5.6 48 76 1001.8 1.6 8.5 20.3 23.4 60.8 39.7 130.8
31/08 17:00 0.7 77 3.92 -2.9 35 72 1001.7 1.6 10.0 21.4 26.2 68.1 48.8 163.0
31/08 16:50 0.4 85 4.24 -1.8 32 52 1001.7 1.2 10.7 22.0 27.5 71.8 53.2 178.3
31/08 16:40 0 87 4.22 -1.9 30 48 1002 0.8 10.7 22.1 27.6 71.9 53.2 178.3
31/08 16:30 -0.5 88 4.12 -2.2 20 35 1002.1 0.8 10.5 22.1 27.4 71.3 52.2 174.8
31/08 16:20 -0.7 88 4.07 -2.4 26 46 1002.1 0.6 10.4 22.0 27.3 71.0 51.7 172.9
31/08 16:10 -0.6 84 3.91 -3 39 72 1002 0.4 10.0 21.8 26.6 69.2 49.5 165.3
31/08 16:00 0.8 74 3.79 -3.3 39 56 1001.6 0 9.7 21.2 25.6 66.7 47.1 156.9
31/08 15:50 0.8 73 3.74 -3.5 41 72 1001.5 0 9.6 21.1 25.4 66.2 46.5 154.7
31/08 15:40 1 70 3.64 -3.8 20 33 1001.4 0 9.4 20.9 25.0 65.0 45.1 149.8
31/08 15:30 1.6 65 3.52 -4.3 33 61 1001.5 0 9.1 20.6 24.4 63.3 43.2 143.4
31/08 15:20 1.6 61 3.3 -5.1 32 57 1001.3 0 8.7 20.3 23.5 61.1 40.5 133.8
31/08 15:10 1.7 56 3.05 -6.1 33 54 1001.1 0 8.1 19.9 22.6 58.5 37.4 122.9
31/08 15:00 1.6 54 2.92 -6.7 32 61 1001.1 0 7.8 19.7 22.1 57.3 35.9 117.5
31/08 14:50 1.6 50 2.71 -7.7 35 52 1001.1 0 7.4 19.4 21.4 55.3 33.3 108.6
31/08 14:40 1.6 54 2.92 -6.7 32 63 1001 0 7.8 19.7 22.1 57.3 35.9 117.5
31/08 14:30 1.4 62 3.31 -5.1 28 52 1000.9 0 8.7 20.3 23.6 61.3 40.7 134.5
31/08 14:20 1.4 58 3.1 -5.9 35 57 1000.7 0 8.2 20.0 22.8 59.2 38.1 125.4
31/08 14:10 1.4 52 2.78 -7.4 35 61 1000.6 0 7.5 19.5 21.7 56.0 34.2 111.8
31/08 14:00 1.3 52 2.76 -7.5 28 54 1000.4 0 7.5 19.5 21.6 55.9 34.0 111.0
31/08 13:50 1.1 66 3.45 -4.5 35 61 1000.2 0 9.0 20.6 24.2 62.9 42.6 141.1
31/08 13:40 1 67 3.48 -4.4 33 59 1000.2 0 9.1 20.6 24.3 63.3 43.0 142.6

Last Refresh: 01-Sep-2026 05:52:31

Bureau of Meteorology